Vertical_Velocity
-0 10 -2 -2 -1 2 1 1 -0 1 2 4 -2 -1 -2 -1 2 2 0 1 1 -1 -0 -2 -1 1 -2 -3 -4 -7 -5 -2 -5 -0 -4 -2 -1 1 0 -1 -3 2 1 -2
9 -1 -3 0 1 2 1 1 -0 3 1 5 -0 -4 -0 0 -4 -3 -1 -1 1 4 2 1 -1 0 -3 -0 0 3 1 -1 1 3 -1 -3 -2 -3 2 2 3 -4 4 5
0 1 0 2 1 4 -0 2 -0 2 0 1 5 0 2 2 2 1 -1 -1 2 -2 -2 -1 -1 -3 1 -1 -1 1 0 1 -1 -0 2 3 5 7 0 -0 -5 1 1 0
-4 -4 0 2 0 4 3 -1 1 1 5 4 7 1 2 1 0 2 1 -1 -2 -1 0 3 -1 -2 -1 -3 0 -1 -2 1 1 2 -1 -3 -2 2 1 1 -0 -2 1 3
-15 1 2 4 -10 2 -5 -0 0 1 1 5 3 9 7 1 1 -2 -2 -1 -2 -2 -2 -4 -4 -2 -2 -1 -1 -2 -0 1 2 3 4 4 3 -1 4 -4 -0 1 4 3
-5 -1 1 -3 -1 -0 0 3 2 1 1 6 -1 7 -1 1 -1 -1 -1 -1 -1 -1 -1 2 5 -0 -4 -1 -1 -3 -2 -5 -1 -2 -3 -0 -1 -0 -3 -5 0 -1 -0 1
6 -1 1 0 6 4 7 6 3 6 6 -2 1 5 -5 -0 -0 1 -0 -0 1 -2 1 -1 -2 -3 -0 -2 -1 -1 -1 -2 -1 -4 -3 -1 0 -1 1 0 3 -1 -2 -4
-2 22 1 -1 -2 -5 -5 0 -0 -1 -1 -0 2 -1 8 1 -1 -1 -1 -1 -2 -1 -1 2 -2 2 3 4 2 1 -2 3 2 2 4 3 -2 0 0 4 -14 -3 -1 2
4 5 4 1 -0 6 2 4 1 0 1 3 -2 -1 5 0 -1 -0 -0 -0 -0 0 1 0 5 -1 2 0 1 4 6 4 2 2 1 0 2 -0 2 -3 4 1 2 -1
-3 8 0 3 4 4 9 -2 8 2 2 0 2 -1 -0 0 2 1 0 1 2 1 -1 -1 -1 3 2 4 4 3 2 3 4 2 1 2 4 3 3 -1 1 -1 2 2
-2 3 8 6 1 -6 6 4 3 3 3 1 0 -5 0 -0 -0 -0 -0 -1 1 -1 1 1 1 1 1 4 3 2 1 2 3 3 2 1 1 3 1 -1 -1 1 0 4
-9 -2 1 -12 3 1 1 -2 -2 4 1 0 2 -11 -1 -1 -1 0 -1 -2 -1 -0 0 2 2 2 2 2 4 1 1 1 1 1 1 0 0 1 4 4 6 10 2 -0
-5 0 4 12 13 5 1 -1 -1 0 2 -5 3 -5 1 1 1 -2 -0 0 -1 -1 1 -1 -1 0 -0 0 0 2 2 3 3 2 3 2 3 2 1 0 -1 2 2 18
5 1 -6 -10 -15 -4 5 1 0 1 4 -5 -6 -7 -4 -3 -1 -1 0 -0 -1 -1 -2 3 3 1 -0 0 -0 1 0 -1 -0 -1 -1 2 3 2 2 1 2 2 1 2
4 0 4 -3 -2 3 -2 -1 -1 4 -8 10 -10 2 -5 -3 -0 0 -1 0 1 0 -1 -0 1 2 3 1 0 -1 2 3 2 -1 1 2 1 1 0 -0 2 2 0 2
2 -1 3 -0 0 1 1 -1 0 -0 -2 1 2 -5 -1 -3 -1 1 -1 0 1 2 1 1 2 5 3 3 2 1 2 -0 1 2 0 -1 0 0 1 -0 2 -0 2 1
1 0 2 -5 0 1 4 -9 -2 -2 0 -1 3 -13 -1 -1 0 -1 -0 1 1 1 0 0 1 3 2 1 1 1 0 1 1 -0 -2 -1 -1 -1 -2 -1 -3 1 0 0
-1 2 0 -1 3 3 -15 -0 -2 -1 -4 -0 1 -2 -1 -1 -1 -2 -2 1 -0 1 1 1 2 1 0 0 -1 -1 -1 -2 -2 -1 -2 -2 -1 -1 1 0 1 -3 -2 -2
1 -0 0 -2 -1 -8 3 -1 -3 -5 -17 -3 -1 -3 -1 1 0 3 -1 3 0 1 1 1 2 2 0 1 0 -0 -1 -1 -2 -2 -1 -1 -1 -3 -3 -4 -3 -2 -2 -1
2 2 5 2 2 -3 -10 -5 -2 1 -9 -2 2 -2 -1 2 5 -1 -2 0 -1 0 1 -0 0 1 3 1 1 -0 -1 -0 -1 -2 -3 -1 -0 1 1 -1 -1 -1 0 0
2 2 -3 0 -1 -2 -1 -1 0 14 -39 -1 -1 -2 -1 -2 0 0 -3 1 2 -1 -3 -1 1 -1 -1 -0 1 -1 -1 -1 -1 -1 -2 -1 1 1 0 -0 -0 1 0 0
-5 -3 -1 2 3 -4 -3 8 4 -22 0 -1 -2 -1 -1 2 1 0 1 -1 -1 -1 -1 1 -1 1 1 2 1 -0 -1 0 0 -0 1 1 0 -1 -1 -0 -0 -1 -1 -0
2 -4 -1 -2 -6 0 -6 -5 -2 -2 1 -1 0 0 2 -2 -1 -1 -1 1 0 -1 -0 1 0 -1 0 -0 1 -1 0 0 0 1 0 -1 -1 -1 0 0 -1 -0 -1 -2
-0 -1 -3 6 -7 -3 -1 2 -2 -0 -0 -0 -1 0 -1 -2 -1 1 1 0 -1 0 1 1 0 -1 -2 -1 -1 -1 -2 -1 0 -1 -1 -0 -1 -2 -3 -4 -3 -2 -3 -2
-8 2 -3 -8 -3 -0 -4 -7 -2 -2 -1 -1 -1 -2 -2 2 1 -1 -1 -1 -0 0 -1 2 1 0 -1 0 0 -1 -1 -3 -1 -1 0 -1 -1 -1 -2 -3 -0 -1 -4 -2
-3 -8 -1 -8 -5 -4 -5 0 3 -2 -1 1 -1 -0 2 3 -1 -2 -2 0 0 -0 0 2 2 0 0 -1 -0 0 1 -1 -0 -1 -1 -1 -0 -1 -1 -1 2 -7 1 -0
Height
1500 1497 1494 1488 1490 1493 1488 1488 1487 1484 1487 1488 1485 1481 1478 1489 1495 1495 1498 1502 1506 1509 1512 1515 1518 1522 1526 1530 1532 1535 1538 1541 1545 1547 1549 1554 1555 1558 1558 1560 1563 1563 1565 1567
1497 1492 1486 1491 1494 1494 1489 1485 1484 1486 1487 1489 1480 1479 1476 1483 1489 1492 1494 1499 1501 1506 1509 1512 1515 1518 1522 1526 1528 1531 1534 1538 1540 1542 1545 1549 1551 1554 1557 1558 1557 1559 1562 1563
1488 1485 1489 1491 1491 1494 1490 1487 1487 1486 1484 1483 1481 1474 1477 1482 1486 1490 1493 1495 1498 1500 1504 1508 1511 1514 1517 1520 1524 1528 1531 1534 1536 1541 1544 1546 1548 1549 1550 1551 1552 1555 1557 1559
1485 1483 1489 1489 1489 1487 1489 1483 1486 1486 1485 1485 1479 1486 1473 1473 1477 1482 1485 1488 1491 1494 1498 1502 1506 1509 1512 1516 1521 1524 1528 1531 1533 1535 1538 1539 1543 1544 1545 1547 1548 1551 1554 1554
1482 1483 1486 1487 1484 1485 1484 1485 1487 1484 1483 1485 1482 1483 1465 1473 1473 1471 1476 1480 1484 1487 1491 1495 1499 1503 1507 1512 1515 1518 1522 1525 1528 1530 1533 1534 1536 1540 1543 1543 1546 1548 1547 1547
1474 1481 1481 1478 1483 1485 1484 1486 1487 1485 1484 1492 1478 1481 1466 1464 1465 1465 1468 1472 1476 1480 1484 1487 1493 1499 1502 1506 1509 1511 1515 1518 1522 1523 1526 1528 1532 1536 1536 1538 1541 1541 1542 1542
1475 1476 1478 1481 1481 1484 1483 1482 1490 1499 1496 1491 1482 1484 1467 1462 1463 1466 1467 1468 1470 1474 1478 1482 1487 1491 1496 1499 1502 1505 1509 1512 1515 1517 1520 1522 1526 1530 1531 1532 1533 1535 1536 1536
1472 1481 1474 1475 1475 1474 1477 1475 1484 1499 1495 1486 1486 1481 1463 1463 1465 1466 1466 1467 1467 1468 1471 1475 1479 1484 1488 1492 1495 1498 1501 1505 1509 1510 1513 1517 1521 1524 1525 1525 1525 1528 1529 1531
1465 1467 1469 1472 1473 1473 1477 1481 1474 1485 1498 1494 1476 1468 1459 1462 1462 1465 1464 1464 1464 1464 1466 1468 1473 1478 1483 1487 1489 1492 1496 1500 1504 1505 1508 1510 1513 1517 1518 1520 1519 1521 1524 1525
1459 1468 1467 1472 1473 1475 1473 1471 1483 1479 1496 1495 1477 1476 1467 1463 1462 1463 1463 1462 1462 1463 1463 1466 1469 1473 1477 1482 1486 1488 1490 1494 1499 1501 1502 1504 1505 1509 1512 1512 1513 1516 1518 1518
1453 1457 1473 1471 1469 1464 1475 1473 1475 1473 1478 1486 1489 1475 1458 1460 1461 1463 1463 1464 1464 1463 1463 1463 1465 1469 1473 1477 1480 1482 1485 1489 1493 1496 1497 1497 1500 1503 1506 1507 1508 1511 1511 1513
1450 1453 1464 1463 1464 1463 1460 1463 1467 1477 1482 1482 1483 1475 1454 1457 1461 1462 1462 1463 1464 1464 1463 1463 1464 1466 1468 1471 1475 1478 1481 1484 1488 1490 1492 1493 1495 1497 1500 1501 1503 1504 1504 1506
1446 1453 1464 1465 1468 1466 1462 1463 1462 1466 1471 1472 1480 1469 1453 1456 1458 1459 1460 1460 1461 1461 1462 1463 1463 1464 1466 1469 1472 1475 1477 1481 1484 1485 1487 1489 1491 1492 1494 1495 1496 1499 1500 1499
1443 1442 1450 1457 1451 1448 1459 1459 1459 1462 1470 1466 1464 1460 1452 1451 1450 1451 1455 1457 1459 1459 1460 1462 1463 1464 1466 1467 1469 1472 1475 1476 1478 1480 1483 1486 1487 1489 1491 1492 1493 1495 1498 1501
1439 1442 1444 1442 1441 1442 1446 1448 1451 1456 1455 1458 1454 1451 1449 1447 1447 1448 1454 1454 1455 1457 1457 1459 1461 1463 1465 1467 1468 1469 1471 1473 1475 1478 1480 1482 1484 1486 1487 1488 1490 1492 1495 1498
1439 1439 1440 1445 1441 1445 1446 1443 1443 1446 1447 1448 1448 1446 1443 1445 1450 1452 1453 1453 1454 1455 1455 1457 1459 1461 1462 1464 1466 1467 1469 1472 1474 1475 1477 1481 1483 1485 1486 1487 1490 1492 1495 1498
1437 1437 1444 1446 1444 1447 1459 1445 1440 1442 1443 1443 1445 1439 1437 1442 1446 1450 1453 1453 1454 1455 1456 1457 1459 1459 1460 1462 1464 1466 1468 1471 1472 1474 1478 1480 1482 1484 1486 1488 1490 1492 1495 1499
1436 1436 1439 1445 1460 1462 1431 1431 1430 1434 1432 1433 1435 1434 1435 1438 1443 1449 1451 1453 1454 1455 1456 1458 1458 1459 1460 1462 1464 1466 1469 1471 1473 1476 1478 1480 1482 1484 1486 1489 1491 1494 1497 1498
1433 1435 1443 1448 1444 1429 1431 1433 1433 1432 1429 1425 1428 1428 1433 1442 1444 1447 1448 1451 1453 1455 1456 1458 1459 1460 1461 1463 1464 1466 1469 1472 1474 1477 1479 1482 1485 1486 1488 1490 1492 1493 1493 1494
1435 1436 1432 1446 1437 1442 1420 1417 1422 1426 1428 1419 1424 1424 1430 1439 1437 1430 1442 1446 1450 1453 1455 1457 1459 1461 1462 1464 1466 1468 1470 1473 1476 1479 1481 1483 1486 1487 1488 1489 1489 1490 1492 1492
1435 1438 1436 1434 1432 1417 1411 1417 1422 1432 1421 1416 1418 1420 1427 1431 1428 1430 1438 1443 1446 1449 1453 1457 1460 1462 1464 1466 1468 1470 1472 1475 1477 1479 1481 1484 1485 1486 1486 1487 1488 1488 1489 1488
1420 1426 1433 1429 1433 1430 1413 1420 1417 1407 1410 1412 1414 1417 1421 1428 1430 1433 1437 1441 1444 1447 1451 1455 1458 1461 1465 1467 1469 1472 1474 1476 1478 1480 1481 1482 1483 1484 1485 1486 1486 1486 1486 1485
1416 1410 1411 1414 1404 1402 1403 1400 1403 1404 1406 1409 1411 1414 1418 1422 1427 1431 1435 1440 1443 1448 1451 1455 1457 1460 1465 1468 1471 1472 1474 1476 1478 1479 1480 1481 1482 1483 1483 1483 1483 1483 1482 1480
1406 1408 1409 1412 1395 1400 1401 1401 1401 1402 1404 1406 1408 1411 1414 1418 1424 1429 1434 1438 1442 1447 1451 1453 1456 1459 1462 1466 1468 1470 1473 1475 1477 1478 1479 1480 1480 1480 1480 1480 1479 1478 1477 1475
1396 1403 1400 1396 1395 1399 1397 1396 1397 1399 1400 1402 1404 1407 1410 1415 1420 1425 1431 1436 1442 1446 1450 1454 1455 1457 1460 1463 1466 1469 1471 1473 1476 1477 1477 1478 1478 1478 1477 1476 1476 1474 1472 1470
1394 1391 1395 1389 1386 1386 1385 1387 1390 1392 1394 1397 1400 1403 1407 1412 1415 1422 1429 1434 1438 1441 1447 1451 1453 1455 1458 1462 1465 1467 1470 1472 1474 1474 1475 1475 1475 1475 1474 1473 1473 1469 1468 1466